FW1762 Weather Reports


Display with metric or nautical units.
time (UTC)temp
F
wind
direction
speed
MPH
gust
MPH
rain 1hr
in
rain 24hr
in
rain mn
in
humidity
%
barometer
mb
20260506061736 48 289 0.0 0.0 0.00 0.00 0.00 80 1013.2
20260506061322 48 172 0.0 0.0 0.00 0.00 0.00 80 1013.2
20260506060521 48 129 0.0 0.0 0.00 0.00 0.00 80 1013.2
20260506051218 47 55 0.0 0.0 0.00 0.00 0.00 82 1012.9
20260506050738 47 60 0.0 0.0 0.00 0.00 0.00 82 1012.9
20260506050319 47 261 0.0 0.0 0.00 0.00 0.00 82 1012.9
20260506045041 47 355 0.0 0.0 0.00 0.00 0.00 82 1012.9
20260506044639 47 225 0.0 1.0 0.00 0.00 0.00 82 1012.9
20260506044238 48 46 0.0 0.0 0.00 0.00 0.00 82 1012.9
20260506043817 48 341 0.0 0.0 0.00 0.00 0.00 82 1012.9
20260506043043 48 355 0.0 0.0 0.00 0.00 0.00 82 1012.9
20260506042541 48 270 0.0 0.0 0.00 0.00 0.00 82 1012.9
20260506042117 48 330 0.0 0.0 0.00 0.00 0.00 82 1012.9
20260506041641 48 273 0.0 0.0 0.00 0.00 0.00 82 1012.9
20260506041238 48 273 0.0 0.0 0.00 0.00 0.00 81 1012.9
20260506040817 48 19 0.0 0.0 0.00 0.00 0.00 81 1012.9
20260506040040 48 45 0.0 0.0 0.00 0.00 0.00 81 1012.9
20260506035618 48 5 0.0 0.0 0.00 0.00 0.00 85 1012.9
20260506035143 48 92 0.0 0.0 0.00 0.00 0.00 81 1012.9
20260506034739 48 126 0.0 0.0 0.00 0.00 0.00 81 1012.9
20260506034315 49 302 0.0 0.0 0.00 0.00 0.00 82 1012.5
20260506033537 49 230 0.0 0.0 0.00 0.00 0.00 82 1012.9
20260506033036 49 107 0.0 0.0 0.00 0.00 0.00 82 1012.5
20260506032617 49 215 0.0 0.0 0.00 0.00 0.00 81 1012.9
20260506032137 49 9 0.0 0.0 0.00 0.00 0.00 81 1012.9
20260506031716 49 24 0.0 0.0 0.00 0.00 0.00 81 1012.9
20260506031241 49 57 0.0 0.0 0.00 0.00 0.00 81 1012.9
20260506030814 49 67 0.0 0.0 0.00 0.00 0.00 80 1012.9
20260506030041 49 78 0.0 0.0 0.00 0.00 0.00 80 1012.5
20260506025539 49 89 0.0 0.0 0.00 0.00 0.00 80 1012.9
20260506025115 50 74 0.0 0.0 0.00 0.00 0.00 80 1012.9
20260506024641 50 34 0.0 0.0 0.00 0.00 0.00 81 1012.9
20260506024215 50 137 0.0 0.0 0.00 0.00 0.00 81 1012.9
20260506023738 50 215 0.0 0.0 0.00 0.00 0.00 81 1012.9
20260506023315 50 294 0.0 0.0 0.00 0.00 0.00 81 1012.9
20260506022536 50 302 0.0 0.0 0.00 0.00 0.00 82 1012.9
20260506022040 50 32 0.0 0.0 0.00 0.00 0.00 82 1012.9
20260506021542 50 355 0.0 0.0 0.00 0.00 0.00 82 1012.9
20260506021113 50 350 0.0 0.0 0.00 0.00 0.00 82 1012.9
20260506020643 50 343 0.0 0.0 0.00 0.00 0.00 81 1012.9
20260506020214 50 37 0.0 0.0 0.00 0.00 0.00 81 1012.9
20260506015812 51 50 0.0 0.0 0.00 0.00 0.00 81 1012.9
20260506015040 51 344 0.0 0.0 0.00 0.00 0.00 81 1012.9
20260506014637 51 313 0.0 0.0 0.00 0.00 0.00 81 1012.9
20260506014236 51 91 0.0 0.0 0.00 0.00 0.00 80 1012.9
20260506013813 51 36 0.0 0.0 0.00 0.00 0.00 80 1012.9
20260506013041 51 36 0.0 0.0 0.00 0.00 0.00 79 1012.9
20260506012541 51 57 0.0 0.0 0.00 0.00 0.00 79 1012.9
20260506012038 51 71 0.0 0.0 0.00 0.00 0.00 79 1012.9
20260506011536 51 59 0.0 0.0 0.00 0.00 0.00 78 1012.9
20260506011038 51 178 0.0 0.0 0.00 0.00 0.00 78 1012.9
20260506010541 51 69 0.0 0.0 0.00 0.00 0.00 78 1013.2
20260506010039 51 274 0.0 0.0 0.00 0.00 0.00 77 1013.2
20260506005612 51 184 0.0 0.0 0.00 0.00 0.00 77 1012.9
20260506005139 51 217 0.0 0.0 0.00 0.00 0.00 77 1012.9
20260506004717 51 41 0.0 0.0 0.00 0.00 0.00 77 1012.9
20260506004310 52 345 0.0 0.0 0.00 0.00 0.00 77 1012.9
20260506003513 52 56 0.0 0.0 0.00 0.00 0.00 77 1012.9
20260506003039 52 113 0.0 0.0 0.00 0.00 0.00 76 1012.9
20260506002537 52 71 0.0 0.0 0.00 0.00 0.00 77 1012.9
20260506002113 52 280 0.0 0.0 0.00 0.00 0.00 76 1012.9
20260506001643 52 321 0.0 0.0 0.00 0.00 0.00 77 1012.9
20260506001240 52 96 0.0 0.0 0.00 0.00 0.00 76 1013.2
20260506000814 52 74 0.0 0.0 0.00 0.00 0.00 76 1013.2
20260506000042 52 63 0.0 0.0 0.00 0.00 0.00 75 1013.2
20260505235541 52 78 0.0 0.0 0.00 0.00 0.00 75 1013.2
20260505235114 53 82 0.0 0.0 0.00 0.00 0.00 76 1013.2
20260505234638 53 61 0.0 4.0 0.00 0.00 0.00 75 1012.9
20260505234213 53 36 0.0 0.0 0.00 0.00 0.00 75 1013.2
20260505233740 53 308 0.0 0.0 0.00 0.00 0.00 75 1012.9
20260505233313 53 55 0.0 0.0 0.00 0.00 0.00 76 1012.9
20260505232536 53 329 0.0 0.0 0.00 0.00 0.00 76 1012.9
20260505232038 53 260 0.0 0.0 0.00 0.00 0.00 78 1012.9
20260505231543 53 67 0.0 0.0 0.00 0.00 0.00 78 1012.9
20260505231041 53 131 0.0 0.0 0.00 0.00 0.00 77 1012.9
20260505230640 53 76 0.0 0.0 0.00 0.00 0.00 77 1013.2
20260505230238 54 70 0.0 0.0 0.00 0.00 0.00 76 1012.9
20260505225813 54 66 0.0 0.0 0.00 0.00 0.00 76 1013.2
20260505225039 54 114 0.0 0.0 0.00 0.00 0.00 76 1013.2
20260505224539 54 102 0.0 1.0 0.00 0.00 0.00 75 1012.9
20260505224038 54 38 1.0 1.0 0.00 0.00 0.00 75 1012.9
20260505223538 54 11 1.0 1.0 0.00 0.00 0.00 75 1012.9
20260505223036 54 49 0.0 1.0 0.00 0.00 0.00 75 1012.9
20260505222538 54 56 0.0 0.0 0.00 0.00 0.00 75 1012.9
20260505222114 54 53 0.0 0.0 0.00 0.00 0.00 75 1012.9
20260505221712 54 245 0.0 0.0 0.00 0.00 0.00 75 1012.9
20260505221243 54 81 0.0 0.0 0.00 0.00 0.00 75 1012.9
20260505220543 54 80 0.0 0.0 0.00 0.00 0.00 74 1012.9
20260505220039 55 115 0.0 0.0 0.00 0.00 0.00 74 1012.9
20260505215542 55 32 0.0 0.0 0.00 0.00 0.00 74 1012.9
20260505215137 55 99 0.0 0.0 0.00 0.00 0.00 73 1012.9
20260505214712 55 61 0.0 0.0 0.00 0.00 0.00 73 1012.9
20260505214310 55 117 0.0 0.0 0.00 0.00 0.00 73 1012.9
20260505213539 55 97 0.0 0.0 0.00 0.00 0.00 72 1012.5
20260505213138 55 129 0.0 0.0 0.00 0.00 0.00 71 1012.5
20260505212713 56 182 0.0 0.0 0.00 0.00 0.00 72 1012.5
20260505212243 56 62 0.0 0.0 0.00 0.00 0.00 73 1012.5
20260505211813 56 5 0.0 0.0 0.00 0.00 0.00 73 1012.5
20260505211042 56 293 0.0 0.0 0.00 0.00 0.00 73 1012.5
20260505210540 56 355 0.0 0.0 0.00 0.00 0.00 73 1012.5
20260505210038 56 60 0.0 0.0 0.00 0.00 0.00 72 1012.5
20260505205636 56 171 0.0 0.0 0.00 0.00 0.00 72 1012.5
20260505205210 56 91 0.0 0.0 0.00 0.00 0.00 72 1012.5
20260505204743 56 114 0.0 0.0 0.00 0.00 0.00 72 1012.2
20260505204311 56 78 0.0 0.0 0.00 0.00 0.00 72 1012.2
20260505203541 56 289 0.0 0.0 0.00 0.00 0.00 72 1012.2
20260505203042 57 304 0.0 0.0 0.00 0.00 0.00 72 1012.2
20260505202538 57 319 0.0 0.0 0.00 0.00 0.00 71 1012.2
20260505202038 57 46 0.0 0.0 0.00 0.00 0.00 71 1012.2
20260505201538 57 33 0.0 2.0 0.00 0.00 0.00 72 1012.2
20260505201114 57 36 0.0 2.0 0.00 0.00 0.00 71 1012.2
20260505200642 57 50 0.0 0.0 0.00 0.00 0.00 71 1012.2
20260505200240 57 48 0.0 0.0 0.00 0.00 0.00 71 1012.2
20260505195813 57 61 0.0 0.0 0.00 0.00 0.00 72 1011.9
20260505195042 57 82 0.0 0.0 0.00 0.00 0.00 72 1011.9
20260505194639 58 79 0.0 0.0 0.00 0.00 0.00 72 1011.9
20260505194215 58 61 0.0 0.0 0.00 0.00 0.00 72 1011.5
20260505193743 58 60 0.0 0.0 0.00 0.00 0.00 72 1011.9
20260505193313 58 308 0.0 0.0 0.00 0.00 0.00 71 1011.5
20260505192544 58 307 0.0 0.0 0.00 0.00 0.00 71 1011.5
20260505192038 58 307 0.0 0.0 0.00 0.00 0.00 71 1011.5
20260505191636 58 360 0.0 0.0 0.00 0.00 0.00 71 1011.5
20260505191213 58 302 0.0 0.0 0.00 0.00 0.00 71 1011.5
20260505190743 58 259 0.0 0.0 0.00 0.00 0.00 70 1011.5
20260505190314 58 219 0.0 0.0 0.00 0.00 0.00 70 1011.5
20260505185539 58 218 0.0 0.0 0.00 0.00 0.00 70 1011.5
20260505185037 58 213 0.0 0.0 0.00 0.00 0.00 69 1011.5
20260505184544 58 213 0.0 0.0 0.00 0.00 0.00 70 1011.5
20260505184037 58 200 0.0 0.0 0.00 0.00 0.00 69 1011.2
20260505183611 58 305 0.0 0.0 0.00 0.00 0.00 69 1011.2
20260505183142 58 28 0.0 0.0 0.00 0.00 0.00 69 1011.2
20260505182713 58 297 0.0 0.0 0.00 0.00 0.00 68 1011.2
20260505182242 58 238 0.0 0.0 0.00 0.00 0.00 68 1011.2
20260505181813 59 342 0.0 0.0 0.00 0.00 0.00 68 1011.2
20260505181037 59 293 0.0 0.0 0.00 0.00 0.00 69 1011.2
20260505180541 59 275 0.0 0.0 0.00 0.00 0.00 69 1011.2
20260505180038 59 288 0.0 0.0 0.00 0.00 0.00 68 1011.2
20260505175614 59 261 0.0 0.0 0.00 0.00 0.00 68 1011.2
20260505175212 59 258 0.0 0.0 0.00 0.00 0.00 68 1011.2
20260505174738 59 259 0.0 0.0 0.00 0.00 0.00 68 1011.2
20260505174314 59 159 0.0 0.0 0.00 0.00 0.00 68 1011.2
20260505173542 59 292 0.0 0.0 0.00 0.00 0.00 69 1011.2
20260505173036 59 292 0.0 0.0 0.00 0.00 0.00 68 1011.2
20260505172533 59 281 0.0 0.0 0.00 0.00 0.00 69 1011.2
20260505172035 59 243 0.0 0.0 0.00 0.00 0.00 68 1011.5
20260505171535 59 298 0.0 0.0 0.00 0.00 0.00 68 1011.5
20260505171036 60 288 0.0 0.0 0.00 0.00 0.00 67 1011.5
20260505170534 60 304 0.0 0.0 0.00 0.00 0.00 67 1011.5
20260505170035 60 304 0.0 0.0 0.00 0.00 0.00 66 1011.5
20260505165534 60 280 0.0 0.0 0.00 0.00 0.00 66 1011.5
20260505165035 60 282 0.0 0.0 0.00 0.00 0.00 66 1011.5
20260505164533 60 266 0.0 0.0 0.00 0.00 0.00 65 1011.2
20260505164036 60 299 0.0 0.0 0.00 0.00 0.00 65 1011.2
20260505163535 61 302 0.0 0.0 0.00 0.00 0.00 64 1011.2
20260505163038 61 305 0.0 0.0 0.00 0.00 0.00 64 1011.2
20260505162547 61 316 0.0 0.0 0.00 0.00 0.00 63 1011.2
20260505162035 61 246 0.0 0.0 0.00 0.00 0.00 63 1011.2
20260505161534 61 242 0.0 0.0 0.00 0.00 0.00 64 1011.5
20260505161034 61 242 0.0 0.0 0.00 0.00 0.00 63 1011.5
20260505160536 61 238 0.0 0.0 0.00 0.00 0.00 63 1011.2
20260505153035 61 313 0.0 0.0 0.00 0.00 0.00 63 1011.5
20260505152536 61 192 0.0 0.0 0.00 0.00 0.00 64 1011.5
20260505152033 61 184 0.0 0.0 0.00 0.00 0.00 64 1011.5
20260505151534 61 270 0.0 0.0 0.00 0.00 0.00 63 1011.5
20260505151030 61 282 0.0 0.0 0.00 0.00 0.00 63 1011.5
20260505150533 61 304 0.0 0.0 0.00 0.00 0.00 63 1011.9
20260505140642 61 346 0.0 0.0 0.00 0.00 0.00 60 1011.9
20260505140232 61 5 0.0 0.0 0.00 0.00 0.00 60 1011.9
20260505125028 62 254 0.0 0.0 0.00 0.00 0.00 59 1012.2
20260505124530 62 143 0.0 0.0 0.00 0.00 0.00 60 1012.2
20260505124030 62 330 0.0 0.0 0.00 0.00 0.00 61 1012.2
20260505123530 62 51 0.0 0.0 0.00 0.00 0.00 60 1012.2
20260505123027 62 42 0.0 0.0 0.00 0.00 0.00 61 1012.2
20260505122528 62 111 0.0 0.0 0.00 0.00 0.00 62 1012.2
20260505122029 62 169 0.0 0.0 0.00 0.00 0.00 62 1012.2
20260505121527 62 334 1.0 1.0 0.00 0.00 0.00 63 1012.2
20260505121032 62 72 1.0 1.0 0.00 0.00 0.00 62 1012.2
20260505120527 62 47 0.0 0.0 0.00 0.00 0.00 63 1012.2
20260505120027 61 306 0.0 0.0 0.00 0.00 0.00 63 1012.2
20260505115528 61 223 0.0 0.0 0.00 0.00 0.00 66 1012.2
20260505115042 61 52 0.0 0.0 0.00 0.00 0.00 66 1012.2
20260505114626 61 219 0.0 0.0 0.00 0.00 0.00 66 1012.2
20260505114141 60 236 0.0 0.0 0.00 0.00 0.00 67 1012.2
20260505113741 60 5 0.0 0.0 0.00 0.00 0.00 68 1012.2
20260505113328 60 42 0.0 0.0 0.00 0.00 0.00 71 1012.5
20260505112526 59 333 0.0 0.0 0.00 0.00 0.00 70 1012.5
20260505112027 59 212 0.0 0.0 0.00 0.00 0.00 70 1012.5
20260505111527 59 105 1.0 1.0 0.00 0.00 0.00 70 1012.5
20260505111040 60 58 0.0 0.0 0.00 0.00 0.00 69 1012.5
20260505110638 60 269 0.0 4.0 0.00 0.00 0.00 73 1012.5
20260505110235 60 308 0.0 0.0 0.00 0.00 0.00 72 1012.9
20260505102026 56 350 0.0 0.0 0.00 0.00 0.00 79 1013.2
20260505101526 56 236 0.0 0.0 0.00 0.00 0.00 79 1013.2
20260505101025 55 268 0.0 0.0 0.00 0.00 0.00 80 1013.2
20260505100526 55 310 0.0 0.0 0.00 0.00 0.00 81 1013.2
20260505100026 55 116 0.0 0.0 0.00 0.00 0.00 81 1013.2
20260505095525 55 304 0.0 0.0 0.00 0.00 0.00 81 1013.2
20260505095023 54 200 0.0 0.0 0.00 0.00 0.00 81 1013.2
20260505094524 54 34 0.0 2.0 0.00 0.00 0.00 81 1013.2
20260505094041 54 86 0.0 2.0 0.00 0.00 0.00 81 1013.2
20260505093624 55 67 0.0 1.0 0.00 0.00 0.00 81 1013.2
20260505093223 55 330 1.0 1.0 0.00 0.00 0.00 81 1013.2
20260505092743 55 31 1.0 2.0 0.00 0.00 0.00 81 1013.2
20260505092324 55 254 0.0 0.0 0.00 0.00 0.00 82 1013.2
20260505091525 55 244 1.0 1.0 0.00 0.00 0.00 81 1013.2
20260505091036 55 355 1.0 1.0 0.00 0.00 0.00 81 1013.2
20260505090625 55 92 0.0 1.0 0.00 0.00 0.00 81 1013.2
20260505085523 55 227 0.0 0.0 0.00 0.00 0.00 83 1013.2
20260505085043 54 227 0.0 0.0 0.00 0.00 0.00 83 1013.2
20260505084639 54 226 0.0 0.0 0.00 0.00 0.00 84 1013.2
20260505084222 54 227 0.0 0.0 0.00 0.00 0.00 83 1013.5
20260505083745 54 134 0.0 0.0 0.00 0.00 0.00 84 1013.2
20260505083322 54 102 0.0 0.0 0.00 0.00 0.00 84 1013.5
20260505082524 54 144 0.0 0.0 0.00 0.00 0.00 85 1013.5
20260505082025 54 360 0.0 0.0 0.00 0.00 0.00 86 1013.5
20260505081522 54 250 0.0 0.0 0.00 0.00 0.00 86 1013.5
20260505081042 54 195 0.0 0.0 0.00 0.00 0.00 86 1013.5
20260505080623 54 296 0.0 0.0 0.00 0.00 0.00 86 1013.5
20260505080141 53 292 0.0 0.0 0.00 0.00 0.00 87 1013.5
20260505075722 53 258 0.0 0.0 0.00 0.00 0.00 87 1013.5
20260505075319 53 105 0.0 0.0 0.00 0.00 0.00 87 1013.5
20260505074537 53 269 0.0 0.0 0.00 0.00 0.00 86 1013.2
20260505074041 53 271 0.0 0.0 0.00 0.00 0.00 86 1013.2
20260505073640 53 239 0.0 0.0 0.00 0.00 0.00 86 1013.2
20260505073221 53 238 0.0 0.0 0.00 0.00 0.00 86 1013.2
20260505072738 53 238 0.0 1.0 0.00 0.00 0.00 86 1013.2
20260505072320 53 312 0.0 0.0 0.00 0.00 0.00 87 1013.2
20260505071620 53 19 0.0 0.0 0.00 0.00 0.00 87 1013.2
20260505071142 53 355 0.0 0.0 0.00 0.00 0.00 87 1013.5
20260505070738 53 40 0.0 0.0 0.00 0.00 0.00 87 1013.5
20260505070319 53 315 0.0 0.0 0.00 0.00 0.00 87 1013.5
20260505065540 53 317 0.0 0.0 0.00 0.00 0.00 87 1013.5
20260505065039 53 51 0.0 0.0 0.00 0.00 0.00 88 1013.5
20260505064636 53 337 0.0 2.0 0.00 0.00 0.00 88 1013.5
20260505064219 53 360 0.0 2.0 0.00 0.00 0.00 88 1013.5
20260505063738 53 117 0.0 0.0 0.00 0.00 0.00 88 1013.5
20260505063321 53 42 0.0 0.0 0.00 0.00 0.00 89 1013.5
20260505062538 53 126 0.0 0.0 0.00 0.00 0.00 89 1013.5
20260505062137 53 124 0.0 0.0 0.00 0.00 0.00 89 1013.5